Regional Weather Roundup
Issued by NWS

Home | Current Version | Previous Version | Graphics & Text | Print | Product List | Glossary On
Versions: 1 2 3 4 5 6 7 8 9 10 11 12 13 14 15 16 17 18 19 20 21 22 23 24 25 26 27 28 29 30 31 32 33 34 35 36 37 38 39 40 41 42 43 44 45 46 47 48 49 50
000
ASUS43 KIND 312309
RWRIN

WEATHER ROUNDUP FOR INDIANA
NATIONAL WEATHER SERVICE INDIANAPOLIS IN
600 PM EST SAT JAN 31 2015

NOTE: "FAIR" INDICATES FEW OR NO CLOUDS BELOW 12,000 FEET WITH NO
SIGNIFICANT WEATHER AND/OR OBSTRUCTIONS TO VISIBILITY.

* - STATION DOES NOT REPORT WEATHER SUCH AS PRECIPITATION OR FOG.

+ - STATION NOT QUALITY CONTROLLED BY THE NATIONAL WEATHER SERVICE.
    USE DATA WITH CAUTION...ESPECIALLY DEWPOINT AND RELATIVE
    HUMIDITY OBSERVATIONS.

INZ001>003-010>013-019-020-010000-
NORTHWEST INDIANA

CITY           SKY/WX    TMP DP  RH WIND       PRES   REMARKS
GARY /AIRPORT/ CLOUDY    39  25  56 SW7       30.18R
KNOX *+        CLOUDY    34  19  55 SW6       30.18S WCI  29
LA PORTE +     CLOUDY    37  30  77 SW6       30.18S
MICHIGAN CITY+ CLOUDY    34  23  64 SW5       30.18S WCI  30
MONTICELLO +   CLOUDY    35  29  79 SW7       30.20R WCI  29
RENSSELAER +   CLOUDY    36  32  87 SW8       30.19S
VALPARAISO     CLOUDY    35  28  75 SW6       30.18S WCI  30

$$

LMZ046-743>745-010000-
SOUTHERN LAKE MICHIGAN

STATION/POSITION TIME  TEMP WIND        PRES
                       AIR  DIR/SP/G
                 (UTC) (F)  (DEG/KT/KT) (MB)
MICHIGAN CITY    2300   35  250/  4/  4   N/A

$$

INZ004-005-014>016-021>024-010000-
NORTH CENTRAL INDIANA

CITY           SKY/WX    TMP DP  RH WIND       PRES   REMARKS
ELKHART        CLOUDY    36  25  64 SW5       30.18S
GOSHEN         CLOUDY    34  27  75 S5        30.18S WCI  30
LOGANSPORT +   CLOUDY    34  30  86 SW8       30.21R WCI  27
PERU/GRISSOM   CLOUDY    34  28  79 SW8       30.20R WCI  27
ROCHESTER +    CLOUDY    36  30  80 SW8       30.19S
SOUTH BEND     CLOUDY    35  26  69 SW5       30.18F WCI  31
WARSAW +       CLOUDY    34  27  75 SW6       30.19R WCI  29

$$

INZ006>009-017-018-025>027-010000-
NORTHEAST INDIANA

CITY           SKY/WX    TMP DP  RH WIND       PRES   REMARKS
ANGOLA *+      MOCLDY    34  25  69 SW7       30.16F WCI  28
AUBURN +       CLOUDY    34  25  69 SW5       30.20R WCI  30
FORT WAYNE     CLOUDY    35  27  72 SW10      30.20S WCI  27
HUNTINGTON +   CLOUDY    34  23  63 SW8       30.19S WCI  28

$$

INZ028-029-035-036-043>045-051>053-010000-
WEST CENTRAL INDIANA

CITY           SKY/WX    TMP DP  RH WIND       PRES   REMARKS
CRAWFORDSVL +  CLOUDY    34  21  59 SW9       30.22S WCI  27
GREENCASTLE +  CLOUDY    36  23  60 SW3       30.24S
LAFAYETTE      CLOUDY    36  27  69 SW7       30.22R
TERRE HAUTE    CLOUDY    36  29  75 S5        30.25F

$$

INZ030>032-037>040-046>048-054>057-064-065-010000-
CENTRAL INDIANA

CITY           SKY/WX    TMP DP  RH WIND       PRES   REMARKS
CP ATTERBURY + CLOUDY    37  23  56 S6        30.25S
FRANKFORT +    CLOUDY    36  28  72 S8        30.23S
GREENWOOD *+   CLOUDY    37  21  52 S3        30.24F
INDIANAPOLIS   CLOUDY    35  23  61 SW9       30.23S WCI  28
-EAGLE CREEK   CLOUDY    37  24  59 VRB6      30.22S
KOKOMO *+      CLOUDY    36  27  69 SW9       30.21R
MARION +       CLOUDY    33  26  76 SW5       30.21R WCI  29
MT COMFORT *+  CLOUDY    36  16  44 S8        30.23S
SHELBYVILLE    CLOUDY    38  24  57 S8        30.23F
ZIONSVILLE +   CLOUDY    37  24  58 SW6       30.22S

$$

INZ033-034-041-042-049-050-058-059-010000-
EAST CENTRAL INDIANA

CITY           SKY/WX    TMP DP  RH WIND       PRES   REMARKS
MUNCIE         CLOUDY    36  24  62 SW9       30.20F

$$

INZ060-061-067>069-081>083-085>088-010000-
SOUTHWEST INDIANA

CITY           SKY/WX    TMP DP  RH WIND       PRES   REMARKS
EVANSVILLE     CLOUDY    42  25  50 S6        30.27S
HUNTINGBURG *+ CLOUDY    39  25  56 SE6       30.27F
WASHINGTON +   CLOUDY    37  26  65 S5        30.26S

$$

INZ062-063-066-070>080-084-089>092-010000-
SOUTH CENTRAL AND SOUTHEAST INDIANA

CITY           SKY/WX    TMP DP  RH WIND       PRES   REMARKS
BLOOMINGTON    CLOUDY    37  23  56 S5        30.24F
NORTH VERNON + CLOUDY    37  23  56 S6        30.27F
SEYMOUR +      CLOUDY    37  25  60 S6        30.27F

$$



USA.gov is the U.S. government's official web portal to all federal, state and local government web resources and services.